Kuchera_Ratio
0.0 0.0 0.0 0.0 0.0 0.0 0.0 0.0 0.0 0.0 0.0 0.0 0.0 0.0 0.0 0.0 0.0 0.0 0.0 0.0 0.0 1.0 0.0 0.0 0.0 0.0 0.6 0.1 0.7 1.8 2.5 4.3 5.4 7.0 7.1 7.3 8.2 7.7 9.5 6.9 6.4 8.2 9.6 9.5 10.9 10.5 9.6 0.0 0.0 3.7 0.0 0.0 0.0 0.0
0.0 0.0 0.0 0.0 0.0 0.0 0.0 0.0 0.0 0.0 0.0 0.0 0.0 0.0 0.0 0.0 0.0 0.0 0.0 0.0 0.0 0.0 0.0 0.0 0.0 0.0 0.0 0.0 0.0 0.6 0.9 1.4 1.2 4.0 6.2 7.2 6.6 6.6 7.8 9.5 5.9 8.1 4.1 4.2 5.1 1.1 0.0 0.0 0.0 0.0 0.0 0.0 0.0 0.0
0.0 0.0 0.0 0.0 0.0 0.0 0.0 0.0 0.0 0.0 0.0 0.0 0.0 0.0 0.0 0.0 0.0 0.0 0.0 0.0 0.0 0.0 0.0 0.4 0.0 0.0 0.0 0.0 0.0 0.0 1.9 0.0 0.4 0.2 3.4 5.4 6.7 7.0 6.7 5.6 3.8 3.0 2.6 4.4 3.3 0.0 0.0 0.0 0.0 0.0 0.0 0.0 0.0 0.0
0.0 0.0 0.0 0.0 0.0 0.0 0.0 0.0 0.0 0.0 0.0 0.0 0.0 0.0 0.0 0.0 0.0 0.0 0.0 0.0 0.0 0.0 6.0 2.9 0.0 0.0 0.0 0.0 0.0 0.0 0.0 0.0 0.3 2.1 2.3 4.5 6.0 4.3 5.6 4.2 5.2 0.0 2.8 3.1 2.2 0.0 0.0 0.0 0.0 0.0 0.0 0.0 0.0 0.0
0.0 0.0 0.0 0.0 0.0 0.0 0.0 0.0 0.0 0.0 0.0 0.0 0.0 0.0 0.0 0.0 0.0 0.0 0.0 0.0 0.0 0.0 5.4 3.4 0.0 0.0 0.0 0.0 0.0 0.0 0.0 1.0 3.0 3.8 6.3 5.9 4.6 3.8 5.3 7.9 6.4 0.1 0.0 1.9 0.0 0.0 0.0 0.0 0.0 0.0 0.0 0.0 0.0 0.0
0.0 0.0 0.0 0.0 0.0 0.0 0.0 0.0 0.0 0.0 0.0 0.0 0.0 0.0 0.0 0.0 0.0 0.0 0.0 0.0 0.0 0.0 0.6 9.0 0.0 2.2 1.4 1.8 2.4 3.6 3.4 3.1 4.8 3.4 6.3 3.4 2.0 2.2 8.3 10.5 0.0 0.0 0.0 0.0 0.0 0.0 0.0 0.0 0.0 0.0 0.0 0.0 0.0 0.0
0.0 0.0 0.0 0.0 0.0 0.0 0.0 0.0 0.0 0.0 0.0 0.0 0.0 0.0 0.0 0.0 0.0 0.0 0.0 0.0 0.0 0.0 1.1 6.8 6.7 5.7 3.2 3.9 6.2 6.5 4.9 5.2 7.5 5.0 9.2 6.7 5.2 4.9 9.1 8.4 0.0 0.0 0.0 0.0 0.0 0.0 0.0 0.0 0.0 0.0 0.0 0.0 0.0 0.0
0.0 0.0 0.0 0.0 0.0 0.0 0.0 0.0 0.0 0.0 0.0 0.0 0.0 0.0 0.0 0.0 0.0 0.0 0.0 0.0 0.0 0.0 0.0 7.9 10.1 10.4 3.3 9.6 9.3 7.3 9.6 10.2 8.6 7.2 9.5 10.5 9.1 9.3 9.8 3.1 0.0 0.0 0.0 0.0 0.0 0.0 0.0 0.0 0.0 0.0 0.0 0.0 0.0 0.0
0.0 0.0 0.0 0.0 0.0 0.0 0.0 0.0 0.0 0.0 0.0 0.0 0.0 0.0 0.0 0.0 0.0 0.0 0.0 0.0 0.0 0.0 5.7 6.9 10.7 10.4 7.0 9.7 8.8 11.4 9.9 13.1 10.0 13.0 11.9 9.9 9.5 9.9 1.8 0.0 0.0 0.0 0.0 0.0 0.0 0.0 0.0 0.0 0.0 0.0 0.0 0.0 0.0 0.0
0.0 0.0 0.0 0.0 0.0 0.0 0.0 0.0 0.0 0.0 0.0 0.0 0.0 1.9 7.5 0.0 0.0 0.0 0.0 1.7 1.9 1.7 4.0 7.9 7.4 9.8 9.3 10.7 12.1 11.8 12.3 12.9 14.2 11.4 10.2 12.9 6.1 2.3 0.0 0.0 0.0 0.0 0.0 0.0 0.0 0.0 0.0 0.0 0.0 0.0 0.0 0.0 0.0 0.0
0.0 0.0 0.0 0.0 0.0 0.0 0.0 0.0 0.0 0.0 0.0 0.0 7.0 7.4 0.0 0.0 0.0 3.8 8.5 9.0 7.0 9.4 6.8 5.9 5.7 8.2 7.2 9.5 11.5 10.0 12.2 13.2 13.9 11.1 12.4 12.5 6.6 0.0 0.0 0.0 0.0 0.0 0.0 0.0 0.0 0.0 0.0 0.0 0.0 0.0 0.0 0.0 0.0 0.0
0.0 0.0 0.0 0.0 0.0 0.0 0.0 0.0 0.0 0.0 0.0 0.0 0.0 0.0 0.0 3.6 8.3 10.2 11.5 9.4 10.4 10.7 8.6 9.0 7.7 1.6 7.3 3.8 7.7 11.1 11.5 12.1 13.2 12.8 14.5 13.3 1.2 0.0 0.0 0.0 0.0 0.0 0.0 0.0 0.0 0.0 0.0 0.0 0.0 0.0 0.0 0.0 0.0 0.0
0.0 0.0 0.0 0.0 0.0 0.0 0.0 0.0 0.0 0.0 0.0 0.0 4.3 8.2 8.2 9.2 13.2 14.2 16.0 13.1 13.1 10.0 7.1 8.8 10.3 3.4 7.6 4.4 8.8 9.7 12.9 12.8 13.3 15.5 14.0 5.9 0.0 0.0 0.0 0.0 0.0 0.0 0.0 0.0 0.0 0.0 0.0 0.0 0.0 0.0 0.0 0.0 0.0 0.0
0.0 0.0 0.0 0.0 0.0 0.0 0.0 0.0 0.0 0.0 0.0 7.9 10.0 13.7 11.7 14.2 12.2 12.2 10.7 12.1 6.9 7.7 6.6 4.2 9.5 7.4 6.3 10.6 8.8 14.2 10.8 13.3 14.7 15.7 12.8 0.0 0.0 0.0 0.0 0.0 0.0 0.0 0.0 0.0 0.0 0.0 0.0 0.0 0.0 0.0 0.0 0.0 0.0 1.9
0.0 0.0 0.0 0.0 0.0 0.0 0.0 0.0 0.0 0.0 4.7 9.2 8.9 13.4 12.9 9.4 8.9 8.1 5.1 5.8 6.7 2.0 3.3 6.7 9.0 7.0 10.9 10.8 12.0 12.7 14.6 15.4 13.7 12.1 3.3 0.0 0.0 0.0 0.0 0.0 0.0 0.0 0.0 0.0 0.0 0.0 0.0 0.0 1.3 0.0 0.0 1.2 1.1 1.6
0.0 0.0 0.0 0.0 0.0 0.0 0.0 0.0 0.0 0.0 7.1 9.0 9.7 11.0 10.9 10.6 10.9 10.2 6.9 8.9 2.3 0.7 1.6 5.1 10.5 12.7 12.3 11.9 14.6 13.8 14.3 15.3 9.8 1.9 0.0 0.0 0.0 0.0 0.0 0.0 0.0 0.0 0.0 0.0 0.0 0.0 0.0 0.3 1.8 1.2 1.6 3.0 2.3 2.2
0.0 0.0 0.0 0.0 0.0 0.0 0.0 0.0 0.7 8.0 9.2 10.4 11.2 9.3 8.3 5.4 6.8 8.7 3.2 5.5 0.0 2.0 7.4 10.4 13.2 13.4 11.5 14.0 14.7 13.0 12.1 3.5 0.0 0.0 0.0 0.0 0.0 0.0 0.0 0.0 0.0 0.0 0.0 0.0 0.0 0.0 0.3 1.3 2.3 4.2 4.8 5.1 3.4 3.5
0.0 0.0 0.0 0.0 0.0 0.0 0.0 5.7 7.5 8.4 12.0 9.3 11.3 9.2 7.6 6.8 7.0 6.0 3.1 0.2 1.3 2.5 6.0 10.4 7.1 13.7 13.2 13.3 13.6 9.2 1.3 0.0 0.0 0.0 0.0 0.0 0.0 0.0 0.0 0.0 0.0 0.0 0.0 0.0 0.0 0.4 2.2 3.6 4.2 5.5 5.5 5.6 5.8 6.5
0.0 0.0 0.0 0.0 0.0 4.6 8.1 9.8 7.8 11.2 11.1 11.3 10.5 7.9 8.7 7.9 1.3 0.0 1.3 0.0 0.0 0.0 2.8 8.8 11.9 13.5 10.8 6.8 2.5 1.3 0.0 0.0 0.0 0.0 0.0 0.0 0.0 0.0 0.0 0.0 0.0 0.0 0.0 0.2 2.2 3.2 3.8 4.4 4.7 4.6 6.1 7.3 8.0 9.0
0.0 0.0 0.0 0.0 0.0 6.9 10.8 12.2 7.8 10.4 13.4 11.8 11.8 9.0 7.7 7.1 2.9 0.8 1.8 0.7 3.6 5.5 8.5 11.8 9.5 8.0 4.7 0.0 0.0 0.0 0.0 0.0 0.0 0.0 0.0 0.0 0.0 0.0 0.0 0.0 0.0 0.0 1.1 2.6 3.9 5.6 6.7 7.1 7.6 6.1 6.1 7.9 8.7 10.1
0.0 0.0 0.0 0.0 7.1 7.8 9.3 12.0 9.7 10.2 11.6 12.1 9.7 7.9 11.5 8.3 7.0 7.7 7.5 2.7 7.2 8.5 8.0 5.9 2.9 0.0 0.0 0.0 0.0 0.0 0.0 0.0 0.0 0.0 0.0 0.0 0.0 0.0 0.0 0.0 0.0 0.5 2.8 4.7 7.5 6.5 7.8 7.0 6.5 7.1 7.7 9.1 8.9 8.7
0.0 0.0 2.1 4.7 9.2 9.7 10.7 9.5 10.4 9.5 10.7 11.0 10.0 11.7 12.6 12.8 11.1 9.0 6.5 8.6 8.0 5.1 3.6 0.9 0.7 0.0 0.0 0.6 0.0 0.0 0.0 0.0 0.0 0.0 0.0 0.0 0.0 0.0 0.0 0.4 1.0 2.0 3.7 4.7 6.8 7.2 8.1 7.8 7.5 8.3 8.9 10.0 10.7 11.6
0.0 1.6 7.5 8.2 12.5 12.6 14.0 10.3 12.8 12.6 13.2 12.4 10.6 13.5 14.0 12.6 9.8 7.5 10.3 8.8 5.4 1.7 0.0 1.1 0.0 0.0 0.0 0.0 0.0 0.0 0.0 0.0 2.4 2.2 2.1 2.1 1.9 1.8 2.0 3.4 2.7 4.7 6.0 7.7 6.5 8.0 9.9 9.1 8.8 9.7 11.1 12.1 12.6 12.9
0.6 7.6 10.7 12.8 13.4 15.5 12.9 14.1 13.2 13.5 12.6 13.0 13.5 15.6 14.9 13.8 11.3 12.1 13.6 12.4 6.6 0.2 0.0 0.1 0.0 0.4 5.3 4.7 4.3 3.9 3.7 3.7 4.3 3.6 3.3 4.0 4.5 4.6 4.8 5.4 5.7 6.0 6.2 6.2 8.5 10.8 10.8 11.5 10.1 12.2 12.6 13.4 13.7 13.3
9.8 12.2 12.6 15.7 14.4 16.0 16.5 16.4 16.2 15.5 16.0 15.2 15.8 16.7 15.7 13.5 15.1 15.2 15.4 12.5 4.6 4.5 3.3 0.5 1.0 1.6 4.9 3.1 0.8 2.5 2.3 3.3 7.4 6.5 5.4 5.3 4.9 6.2 7.3 8.2 7.4 7.0 8.0 9.7 12.0 12.0 12.0 12.2 12.1 12.9 13.5 13.7 13.5 13.8
14.8 14.2 14.5 16.0 16.1 15.0 16.3 16.9 16.7 16.5 15.6 16.4 16.4 15.7 15.2 14.7 15.8 15.6 14.3 7.0 4.3 2.7 3.6 5.9 6.1 6.9 6.6 4.0 3.9 2.7 4.1 3.8 6.0 8.3 6.8 7.1 6.4 6.4 6.5 9.2 11.1 12.5 8.6 8.1 10.7 12.1 11.7 12.3 12.8 13.5 13.9 14.1 13.8 14.4
16.7 16.5 15.4 13.6 14.8 14.5 15.1 15.4 14.6 13.6 15.7 15.7 16.8 16.8 16.2 16.2 15.9 12.5 6.8 6.3 4.4 2.9 3.8 4.2 5.6 6.6 6.4 5.8 5.8 2.9 2.3 4.8 7.0 5.5 4.5 6.1 5.1 3.5 6.3 7.2 9.0 10.6 10.6 10.0 11.0 11.3 10.6 12.4 13.2 13.5 13.7 14.1 14.5 14.7
16.4 15.6 16.8 15.4 14.3 14.2 14.2 13.7 13.4 12.7 13.0 13.8 14.7 15.7 15.6 15.2 12.2 6.0 5.4 3.6 4.5 4.8 4.9 5.6 6.8 8.2 9.5 10.4 4.5 5.5 8.6 10.7 11.3 10.1 10.9 11.8 10.2 9.0 8.5 9.3 10.0 8.6 10.8 11.2 11.4 10.8 9.6 11.3 12.5 12.9 13.5 14.1 15.2 16.1
16.7 15.5 14.7 14.9 13.6 12.9 12.0 11.9 10.4 10.8 11.0 11.4 11.4 12.1 9.8 8.1 6.2 5.9 5.5 5.7 5.4 6.4 6.1 6.9 7.1 8.3 9.4 10.1 9.2 8.4 7.7 11.4 12.3 13.6 13.8 13.3 13.6 13.3 11.0 10.3 10.5 11.6 11.3 11.1 9.0 9.1 9.4 11.8 12.6 13.5 14.3 15.2 15.7 16.2
16.5 15.5 14.0 14.1 13.8 14.7 14.1 13.0 11.3 10.2 10.6 11.3 10.1 9.6 8.6 7.7 6.8 6.1 6.1 6.2 5.6 5.9 6.7 7.8 8.4 10.3 12.1 13.0 12.9 12.8 12.9 10.7 7.1 8.0 12.3 12.4 12.9 13.5 12.3 12.7 12.6 12.2 12.1 10.8 12.8 13.6 12.2 13.8 14.6 15.3 15.7 16.1 16.3 16.5
15.6 14.2 13.7 15.0 15.4 15.1 14.5 13.7 13.6 14.1 13.8 13.4 13.0 12.5 11.2 9.5 8.3 7.6 5.1 6.0 6.3 6.8 7.3 9.0 11.2 12.7 13.5 14.1 14.0 13.7 13.9 13.2 10.2 8.7 10.6 12.3 12.5 13.1 13.3 13.1 12.4 12.2 12.2 12.5 13.2 13.1 13.5 14.5 14.7 15.2 15.8 16.2 16.9 17.5
15.5 15.1 14.4 15.5 15.9 15.5 15.2 15.2 14.5 14.4 14.3 14.0 13.7 13.3 13.2 12.6 12.0 9.0 6.7 7.4 7.3 7.0 7.5 10.6 12.9 13.9 14.1 13.8 12.4 11.5 8.5 12.8 12.1 11.8 12.2 12.7 13.0 12.6 12.3 12.3 12.7 12.7 12.8 12.9 12.9 13.5 13.9 14.0 14.9 15.7 16.3 16.9 17.5 18.4
16.6 16.0 15.3 15.3 15.8 16.1 15.7 15.7 15.2 15.1 15.1 15.0 14.9 14.6 14.3 14.2 12.4 10.0 8.1 8.0 7.2 7.8 9.6 12.8 13.8 13.1 12.7 12.4 13.0 13.0 12.4 12.7 12.3 10.7 11.1 12.0 11.6 11.5 12.1 12.4 12.6 12.6 12.9 13.3 13.9 13.9 14.6 15.2 15.6 16.3 17.0 17.5 18.2 18.6